• In Hungary
  • List of Countries
  • For 7 days
  • Water Temperature
  • Satellite Maps
  • Weather Map
  • News
  • Weather Widgets
  • user-avatar
    Login

    Hourly Weather Kotow

    Today, 19 January, Friday

    Time Temperature Precipitation Wind Pressure Humidity
    00:00 -2°C° 0 mm 6 mps 699 mmHg 72%
    01:00 -2°C° 0 mm 4 mps 699 mmHg 78%
    02:00 -2°C° 0.1 mm 4 mps 699 mmHg 77%
    03:00 -2°C° 0.1 mm 5 mps 699 mmHg 77%
    04:00 -2°C° 0.1 mm 5 mps 699 mmHg 77%
    05:00 -4°C° 0 mm 5 mps 699 mmHg 77%
    06:00 -4°C° 0 mm 5 mps 700 mmHg 78%
    07:00 -3°C° 0 mm 4 mps 700 mmHg 78%
    08:00 -4°C° 0 mm 5 mps 701 mmHg 74%
    09:00 -3°C° 0 mm 6 mps 702 mmHg 70%
    10:00 -2°C° 0 mm 6 mps 702 mmHg 66%
    11:00 -2°C° 0 mm 6 mps 703 mmHg 65%
    12:00 -1°C° 0 mm 5 mps 703 mmHg 64%
    13:00 0°C° 0 mm 5 mps 704 mmHg 63%
    14:00 -1°C° 0 mm 4 mps 704 mmHg 68%
    15:00 -1°C° 0 mm 3 mps 704 mmHg 73%
    16:00 -2°C° 0 mm 2 mps 705 mmHg 78%
    17:00 -2°C° 0 mm 2 mps 705 mmHg 81%
    18:00 -1°C° 0 mm 1 mps 705 mmHg 85%
    19:00 -1°C° 0 mm 1 mps 706 mmHg 88%
    20:00 -1°C° 0 mm 1 mps 706 mmHg 88%
    21:00 -1°C° 0 mm 1 mps 706 mmHg 88%
    22:00 -1°C° 0 mm 1 mps 707 mmHg 89%
    23:00 -1°C° 0 mm 1 mps 707 mmHg 89%

    Tomorrow, 20 January, Saturday

    Time Temperature Precipitation Wind Pressure Humidity
    00:00 -2°C° 0 mm 1 mps 707 mmHg 89%
    01:00 -2°C° 0 mm 1 mps 707 mmHg 90%
    02:00 -2°C° 0 mm 1 mps 707 mmHg 90%
    03:00 -2°C° 0 mm 1 mps 707 mmHg 90%
    04:00 -3°C° 0 mm 1 mps 707 mmHg 90%
    05:00 -3°C° 0 mm 1 mps 707 mmHg 90%
    06:00 -3°C° 0 mm 1 mps 707 mmHg 89%
    07:00 -3°C° 0 mm 1 mps 707 mmHg 89%
    08:00 -2°C° 0 mm 1 mps 707 mmHg 84%
    09:00 -1°C° 0 mm 1 mps 707 mmHg 79%
    10:00 -2°C° 0 mm 2 mps 707 mmHg 75%
    11:00 -1°C° 0 mm 2 mps 707 mmHg 72%
    12:00 -1°C° 0 mm 2 mps 707 mmHg 70%
    13:00 +1°C° 0 mm 2 mps 706 mmHg 67%
    14:00 -1°C° 0 mm 2 mps 706 mmHg 72%
    15:00 -2°C° 0 mm 2 mps 706 mmHg 76%
    16:00 -2°C° 0 mm 2 mps 706 mmHg 81%
    17:00 -3°C° 0.1 mm 2 mps 705 mmHg 84%
    18:00 -1°C° 0.1 mm 1 mps 705 mmHg 87%
    19:00 -1°C° 0.1 mm 1 mps 705 mmHg 91%
    20:00 -1°C° 0.4 mm 1 mps 705 mmHg 92%
    21:00 -1°C° 0.4 mm 1 mps 705 mmHg 93%
    22:00 -1°C° 0.4 mm 1 mps 705 mmHg 94%
    23:00 -2°C° 0.1 mm 1 mps 705 mmHg 93%

    Day after tomorrow, 21 January, Sunday

    Time Temperature Precipitation Wind Pressure Humidity
    00:00 -2°C° 0.1 mm 1 mps 705 mmHg 93%
    01:00 -2°C° 0.1 mm 1 mps 705 mmHg 93%
    02:00 -2°C° 0 mm 1 mps 705 mmHg 92%
    03:00 -2°C° 0 mm 1 mps 705 mmHg 91%
    04:00 -2°C° 0 mm 1 mps 705 mmHg 91%
    05:00 -2°C° 0.2 mm 1 mps 705 mmHg 92%
    06:00 -2°C° 0.2 mm 1 mps 705 mmHg 93%
    07:00 -2°C° 0.2 mm 1 mps 705 mmHg 94%
    08:00 -2°C° 0.5 mm 1 mps 705 mmHg 93%
    09:00 -1°C° 0.5 mm 1 mps 705 mmHg 93%
    10:00 -1°C° 0.5 mm 1 mps 705 mmHg 92%
    11:00 -1°C° 0.6 mm 1 mps 705 mmHg 92%
    12:00 -3°C° 0.6 mm 2 mps 705 mmHg 92%
    13:00 -3°C° 0.6 mm 2 mps 706 mmHg 92%
    14:00 -3°C° 0.6 mm 2 mps 706 mmHg 92%
    15:00 -4°C° 0.6 mm 3 mps 706 mmHg 93%
    16:00 -4°C° 0.6 mm 3 mps 707 mmHg 93%
    17:00 -5°C° 0.3 mm 3 mps 707 mmHg 93%
    18:00 -5°C° 0.3 mm 3 mps 708 mmHg 92%
    19:00 -5°C° 0.3 mm 3 mps 708 mmHg 92%
    20:00 -5°C° 0.1 mm 3 mps 709 mmHg 92%
    21:00 -6°C° 0.1 mm 3 mps 709 mmHg 92%
    22:00 -6°C° 0.1 mm 3 mps 710 mmHg 92%
    23:00 -6°C° 0.1 mm 3 mps 710 mmHg 92%

    22 January, Monday

    Time Temperature Precipitation Wind Pressure Humidity
    00:00 -6°C° 0.1 mm 3 mps 710 mmHg 93%
    01:00 -6°C° 0.1 mm 2 mps 710 mmHg 93%
    02:00 -6°C° 0 mm 2 mps 711 mmHg 93%
    03:00 -6°C° 0 mm 2 mps 711 mmHg 94%
    04:00 -6°C° 0 mm 2 mps 711 mmHg 94%
    05:00 -6°C° 0.1 mm 2 mps 712 mmHg 94%
    06:00 -6°C° 0.1 mm 2 mps 712 mmHg 94%
    07:00 -6°C° 0.1 mm 2 mps 712 mmHg 94%
    08:00 -6°C° 0 mm 2 mps 713 mmHg 90%
    09:00 -3°C° 0 mm 1 mps 713 mmHg 87%
    10:00 -3°C° 0 mm 1 mps 713 mmHg 84%
    11:00 -2°C° 0 mm 1 mps 713 mmHg 81%
    12:00 -2°C° 0 mm 1 mps 713 mmHg 78%
    13:00 -1°C° 0 mm 1 mps 713 mmHg 75%
    14:00 -2°C° 0 mm 1 mps 713 mmHg 78%
    15:00 -3°C° 0 mm 1 mps 712 mmHg 82%
    16:00 -6°C° 0 mm 2 mps 712 mmHg 85%
    17:00 -6°C° 0 mm 2 mps 711 mmHg 85%
    18:00 -6°C° 0 mm 2 mps 711 mmHg 86%
    19:00 -7°C° 0 mm 3 mps 711 mmHg 86%
    20:00 -7°C° 0 mm 3 mps 711 mmHg 85%
    21:00 -7°C° 0 mm 3 mps 711 mmHg 83%
    22:00 -6°C° 0 mm 3 mps 711 mmHg 82%
    23:00 -7°C° 0.2 mm 4 mps 710 mmHg 83%

    23 January, Tuesday

    Time Temperature Precipitation Wind Pressure Humidity
    00:00 -7°C° 0.2 mm 4 mps 710 mmHg 84%
    01:00 -7°C° 0.2 mm 4 mps 710 mmHg 85%
    02:00 -7°C° 0.3 mm 4 mps 709 mmHg 86%
    03:00 -7°C° 0.3 mm 4 mps 709 mmHg 86%
    04:00 -7°C° 0.3 mm 4 mps 709 mmHg 86%
    05:00 -7°C° 0.2 mm 4 mps 710 mmHg 88%
    06:00 -6°C° 0.2 mm 3 mps 710 mmHg 89%
    07:00 -6°C° 0.2 mm 3 mps 711 mmHg 90%
    08:00 -6°C° 0.2 mm 3 mps 711 mmHg 89%
    09:00 -5°C° 0.2 mm 3 mps 712 mmHg 89%
    10:00 -5°C° 0.2 mm 3 mps 713 mmHg 88%
    11:00 -4°C° 0.1 mm 3 mps 713 mmHg 88%
    12:00 -4°C° 0.1 mm 3 mps 713 mmHg 88%
    13:00 -2°C° 0.1 mm 3 mps 714 mmHg 89%
    14:00 -2°C° 0.1 mm 2 mps 714 mmHg 90%
    15:00 -2°C° 0.1 mm 2 mps 714 mmHg 92%
    16:00 -2°C° 0.1 mm 2 mps 714 mmHg 93%
    17:00 -2°C° 0.1 mm 2 mps 715 mmHg 93%
    18:00 -3°C° 0.1 mm 2 mps 715 mmHg 94%
    19:00 -3°C° 0.1 mm 2 mps 715 mmHg 94%
    20:00 -3°C° 0.1 mm 2 mps 715 mmHg 93%
    21:00 -3°C° 0.1 mm 2 mps 715 mmHg 93%
    22:00 -3°C° 0.1 mm 2 mps 715 mmHg 93%
    23:00 -3°C° 0.2 mm 2 mps 715 mmHg 93%

    24 January, Wednesday

    Time Temperature Precipitation Wind Pressure Humidity
    00:00 -3°C° 0.2 mm 2 mps 715 mmHg 93%
    01:00 -2°C° 0.2 mm 2 mps 715 mmHg 93%
    02:00 -2°C° 0.7 mm 2 mps 715 mmHg 93%
    03:00 -2°C° 0.7 mm 2 mps 716 mmHg 94%
    04:00 -2°C° 0.7 mm 2 mps 716 mmHg 95%
    05:00 -2°C° 0.6 mm 2 mps 716 mmHg 95%
    06:00 -2°C° 0.6 mm 2 mps 716 mmHg 95%
    07:00 -2°C° 0.6 mm 2 mps 717 mmHg 96%
    08:00 -1°C° 0.3 mm 2 mps 717 mmHg 96%
    09:00 -1°C° 0.3 mm 2 mps 718 mmHg 96%
    10:00 -1°C° 0.3 mm 2 mps 719 mmHg 97%
    11:00 +1°C° 0.1 mm 2 mps 719 mmHg 96%
    12:00 +1°C° 0.1 mm 2 mps 719 mmHg 96%
    13:00 +2°C° 0.1 mm 1 mps 719 mmHg 95%
    14:00 +2°C° 0 mm 1 mps 720 mmHg 95%
    15:00 +1°C° 0 mm 1 mps 720 mmHg 95%
    16:00 0°C° 0 mm 0 mps 720 mmHg 95%
    17:00 -1°C° 0 mm 0 mps 720 mmHg 95%
    18:00 -1°C° 0 mm 0 mps 720 mmHg 95%
    19:00 -1°C° 0 mm 0 mps 721 mmHg 95%
    20:00 -1°C° 0 mm 1 mps 721 mmHg 94%
    21:00 -1°C° 0 mm 1 mps 721 mmHg 94%
    22:00 -1°C° 0 mm 1 mps 721 mmHg 93%
    23:00 -1°C° 0 mm 1 mps 721 mmHg 92%
    Show more